Location: Ljubljana
(46.0552°N, 14.5144°E)
Time: 11:43:33
(UTC+01:00)

ISS - Visible Passes

Search period start: 22 November 2017 00:00
Search period end: 02 December 2017 00:00
Orbit: 402 x 407 km, 51.6° (Epoch: 22 November)

Date Brightness Start Highest point End Pass type
(mag) Time Alt. Az. Time Alt. Az. Time Alt. Az.
26 Nov -1.3 18:24:22 10° S 18:25:06 14° S 18:25:06 14° S visible
27 Nov -1.5 17:33:38 10° SSE 17:34:43 11° SE 17:35:12 11° ESE visible
27 Nov -0.7 19:07:25 10° SW 19:07:52 13° SW 19:07:52 13° SW visible
28 Nov -2.9 18:15:17 10° SW 18:17:52 37° S 18:17:52 37° S visible
29 Nov -2.3 17:23:28 10° SSW 17:26:09 24° SE 17:27:47 16° E visible
29 Nov -1.2 18:59:10 10° WSW 19:00:26 21° W 19:00:26 21° W visible
30 Nov -4.0 18:06:44 10° WSW 18:10:01 84° SSE 18:10:16 73° E visible
01 Dec -3.4 17:14:29 10° SW 17:17:40 49° SE 17:20:03 16° ENE visible
01 Dec -1.5 18:51:05 10° W 18:52:42 24° WNW 18:52:42 24° WNW visible
